Time,TemperatureF,DewpointF,PressureIn,WindDirection,WindDirectionDegrees,WindSpeedMPH,WindSpeedGustMPH,Humidity,HourlyPrecipIn,Conditions,Clouds,dailyrainin,SoftwareType,DateUTC
2013-07-08 00:13:00,73.2,72.3,29.82,South,180,0.0,-999.0,97,-99.99,,,0.00,Acu-Link.com,2013-07-08 04:13:00,
2013-07-08 00:28:00,73.2,72.3,29.82,ESE,112,0.0,-999.0,97,-99.99,,,0.00,Acu-Link.com,2013-07-08 04:28:00,
2013-07-08 00:43:00,73.2,72.3,29.81,ESE,112,0.0,-999.0,97,-99.99,,,0.00,Acu-Link.com,2013-07-08 04:43:00,
2013-07-08 00:58:00,73.4,72.8,29.84,WSW,247,0.0,-999.0,98,-99.99,,,0.00,Acu-Link.com,2013-07-08 04:58:00,
2013-07-08 01:14:00,73.2,72.6,29.85,South,180,0.0,-999.0,98,-99.99,,,0.00,Acu-Link.com,2013-07-08 05:14:00,
2013-07-08 01:29:00,72.7,72.1,29.84,NNE,22,0.0,-999.0,98,-99.99,,,0.00,Acu-Link.com,2013-07-08 05:29:00,
2013-07-08 01:44:00,72.7,72.1,29.83,NW,315,0.0,-999.0,98,-99.99,,,0.00,Acu-Link.com,2013-07-08 05:44:00,
2013-07-08 01:59:00,72.5,71.9,29.85,NNE,22,0.0,-999.0,98,-99.99,,,0.00,Acu-Link.com,2013-07-08 05:59:00,
2013-07-08 02:14:00,72.5,71.9,29.85,WSW,247,0.0,-999.0,98,-99.99,,,0.00,Acu-Link.com,2013-07-08 06:14:00,
2013-07-08 02:30:00,72.5,71.9,29.84,West,270,0.0,-999.0,98,-99.99,,,0.00,Acu-Link.com,2013-07-08 06:30:00,
2013-07-08 02:45:00,72.7,72.1,29.83,WSW,247,0.0,-999.0,98,-99.99,,,0.00,Acu-Link.com,2013-07-08 06:45:00,
2013-07-08 03:00:00,72.7,72.1,29.83,West,270,0.0,-999.0,98,-99.99,,,0.00,Acu-Link.com,2013-07-08 07:00:00,
2013-07-08 03:15:00,72.7,72.1,29.83,North,0,0.0,-999.0,98,-99.99,,,0.00,Acu-Link.com,2013-07-08 07:15:00,
2013-07-08 03:31:00,72.7,72.1,29.83,ESE,112,0.0,-999.0,98,-99.99,,,0.00,Acu-Link.com,2013-07-08 07:31:00,
2013-07-08 03:46:00,72.7,72.1,29.82,SW,225,0.0,-999.0,98,-99.99,,,0.00,Acu-Link.com,2013-07-08 07:46:00,
2013-07-08 04:01:00,72.5,71.9,29.82,ESE,112,0.0,-999.0,98,-99.99,,,0.00,Acu-Link.com,2013-07-08 08:01:00,
2013-07-08 04:16:00,72.7,72.1,29.82,SSW,202,0.0,-999.0,98,-99.99,,,0.00,Acu-Link.com,2013-07-08 08:16:00,
2013-07-08 04:31:00,72.7,72.1,29.83,SSW,202,0.0,-999.0,98,-99.99,,,0.00,Acu-Link.com,2013-07-08 08:31:00,
2013-07-08 04:46:00,72.3,71.7,29.82,NNE,22,0.0,-999.0,98,-99.99,,,0.00,Acu-Link.com,2013-07-08 08:46:00,
2013-07-08 05:02:00,72.1,71.5,29.82,North,0,0.0,-999.0,98,-99.99,,,0.00,Acu-Link.com,2013-07-08 09:02:00,
2013-07-08 05:17:00,72.0,71.4,29.83,West,270,0.0,-999.0,98,-99.99,,,0.00,Acu-Link.com,2013-07-08 09:17:00,
2013-07-08 05:32:00,72.0,71.4,29.82,ENE,67,0.0,-999.0,98,-99.99,,,0.00,Acu-Link.com,2013-07-08 09:32:00,
2013-07-08 05:47:00,72.0,71.1,29.83,South,180,1.7,-999.0,97,-99.99,,,0.00,Acu-Link.com,2013-07-08 09:47:00,
2013-07-08 06:03:00,72.0,71.1,29.84,West,270,0.0,-999.0,97,-99.99,,,0.00,Acu-Link.com,2013-07-08 10:03:00,
2013-07-08 06:18:00,72.0,71.1,29.84,NE,45,0.0,-999.0,97,-99.99,,,0.00,Acu-Link.com,2013-07-08 10:18:00,
2013-07-08 06:33:00,72.0,71.1,29.84,NNW,337,0.0,-999.0,97,-99.99,,,0.00,Acu-Link.com,2013-07-08 10:33:00,
2013-07-08 06:48:00,72.1,71.2,29.84,ENE,67,0.0,-999.0,97,-99.99,,,0.00,Acu-Link.com,2013-07-08 10:48:00,
2013-07-08 07:03:00,72.5,71.6,29.84,WSW,247,0.0,-999.0,97,-99.99,,,0.00,Acu-Link.com,2013-07-08 11:03:00,
2013-07-08 07:19:00,73.4,71.9,29.86,East,90,1.1,-999.0,95,-99.99,,,0.00,Acu-Link.com,2013-07-08 11:19:00,
2013-07-08 07:34:00,74.7,72.5,29.86,SW,225,1.7,-999.0,93,-99.99,,,0.00,Acu-Link.com,2013-07-08 11:34:00,
2013-07-08 07:49:00,75.9,73.1,29.85,North,0,1.7,-999.0,91,-99.99,,,0.00,Acu-Link.com,2013-07-08 11:49:00,
2013-07-08 08:04:00,76.6,73.1,29.87,West,270,1.1,-999.0,89,-99.99,,,0.00,Acu-Link.com,2013-07-08 12:04:00,
2013-07-08 08:19:00,77.4,73.2,29.86,ESE,112,2.2,-999.0,87,-99.99,,,0.00,Acu-Link.com,2013-07-08 12:19:00,
2013-07-08 08:35:00,77.7,73.5,29.87,East,90,3.2,-999.0,87,-99.99,,,0.00,Acu-Link.com,2013-07-08 12:35:00,
2013-07-08 08:50:00,78.8,73.5,29.85,SSE,157,2.2,-999.0,84,-99.99,,,0.00,Acu-Link.com,2013-07-08 12:50:00,
2013-07-08 09:05:00,79.5,74.9,29.85,WSW,247,2.2,-999.0,86,-99.99,,,0.00,Acu-Link.com,2013-07-08 13:05:00,
2013-07-08 09:21:00,81.1,74.0,29.86,North,0,3.7,-999.0,79,-99.99,,,0.00,Acu-Link.com,2013-07-08 13:21:00,
2013-07-08 09:36:00,81.3,73.8,29.86,SW,225,2.7,-999.0,78,-99.99,,,0.00,Acu-Link.com,2013-07-08 13:36:00,
2013-07-08 09:51:00,81.0,73.9,29.87,NW,315,2.7,-999.0,79,-99.99,,,0.00,Acu-Link.com,2013-07-08 13:51:00,
2013-07-08 10:06:00,81.3,74.1,29.88,North,0,1.1,-999.0,79,-99.99,,,0.00,Acu-Link.com,2013-07-08 14:06:00,
2013-07-08 10:21:00,82.9,74.9,29.86,SW,225,1.7,-999.0,77,-99.99,,,0.00,Acu-Link.com,2013-07-08 14:21:00,
2013-07-08 10:37:00,84.2,75.4,29.86,NNE,22,2.2,-999.0,75,-99.99,,,0.00,Acu-Link.com,2013-07-08 14:37:00,
2013-07-08 10:52:00,83.5,75.1,29.87,ESE,112,1.1,-999.0,76,-99.99,,,0.00,Acu-Link.com,2013-07-08 14:52:00,
2013-07-08 11:07:00,86.2,75.7,29.86,SSW,202,1.1,-999.0,71,-99.99,,,0.00,Acu-Link.com,2013-07-08 15:07:00,
2013-07-08 11:23:00,84.6,75.4,29.88,SW,225,1.7,-999.0,74,-99.99,,,0.00,Acu-Link.com,2013-07-08 15:23:00,
2013-07-08 11:38:00,85.3,75.2,29.86,South,180,0.0,-999.0,72,-99.99,,,0.00,Acu-Link.com,2013-07-08 15:38:00,
2013-07-08 11:53:00,85.6,75.1,29.86,WSW,247,0.0,-999.0,71,-99.99,,,0.00,Acu-Link.com,2013-07-08 15:53:00,
2013-07-08 12:08:00,86.4,75.4,29.88,SW,225,3.7,-999.0,70,-99.99,,,0.00,Acu-Link.com,2013-07-08 16:08:00,
2013-07-08 12:23:00,85.8,74.4,29.87,NE,45,3.7,-999.0,69,-99.99,,,0.00,Acu-Link.com,2013-07-08 16:23:00,
2013-07-08 12:39:00,86.4,73.7,29.87,SW,225,3.7,-999.0,66,-99.99,,,0.00,Acu-Link.com,2013-07-08 16:39:00,
2013-07-08 12:54:00,86.4,74.1,29.87,ENE,67,2.7,-999.0,67,-99.99,,,0.00,Acu-Link.com,2013-07-08 16:54:00,
2013-07-08 13:24:00,88.2,74.9,29.86,West,270,2.7,-999.0,65,-99.99,,,0.00,Acu-Link.com,2013-07-08 17:24:00,
2013-07-08 13:39:00,86.5,73.3,29.88,East,90,3.2,-999.0,65,-99.99,,,0.00,Acu-Link.com,2013-07-08 17:39:00,
2013-07-08 13:55:00,89.1,72.9,29.87,NNW,337,1.7,-999.0,59,-99.99,,,0.00,Acu-Link.com,2013-07-08 17:55:00,
2013-07-08 14:25:00,87.4,71.8,29.88,NNE,22,2.7,-999.0,60,-99.99,,,0.00,Acu-Link.com,2013-07-08 18:25:00,
2013-07-08 14:56:00,87.8,70.6,29.85,ESE,112,2.7,-999.0,57,-99.99,,,0.00,Acu-Link.com,2013-07-08 18:56:00,
2013-07-08 15:11:00,88.7,73.0,29.87,SSW,202,0.0,-999.0,60,-99.99,,,0.00,Acu-Link.com,2013-07-08 19:11:00,
2013-07-08 15:26:00,88.3,70.6,29.85,North,0,0.0,-999.0,56,-99.99,,,0.00,Acu-Link.com,2013-07-08 19:26:00,
2013-07-08 15:41:00,88.0,71.3,29.87,WSW,247,2.2,-999.0,58,-99.99,,,0.00,Acu-Link.com,2013-07-08 19:41:00,
2013-07-08 16:12:00,88.3,70.1,29.85,NNW,337,0.0,-999.0,55,-99.99,,,0.00,Acu-Link.com,2013-07-08 20:12:00,
2013-07-08 16:27:00,89.4,71.6,29.87,West,270,1.7,-999.0,56,-99.99,,,0.00,Acu-Link.com,2013-07-08 20:27:00,
2013-07-08 16:57:00,88.5,72.3,29.85,West,270,2.2,-999.0,59,-99.99,,,0.00,Acu-Link.com,2013-07-08 20:57:00,
2013-07-08 17:12:00,89.1,72.4,29.85,ESE,112,1.7,-999.0,58,-99.99,,,0.00,Acu-Link.com,2013-07-08 21:12:00,
2013-07-08 17:58:00,89.6,72.3,29.85,ESE,112,1.7,-999.0,57,-99.99,,,0.00,Acu-Link.com,2013-07-08 21:58:00,
2013-07-08 18:13:00,88.9,72.2,29.86,SSW,202,1.7,-999.0,58,-99.99,,,0.00,Acu-Link.com,2013-07-08 22:13:00,
2013-07-08 18:44:00,88.2,73.5,29.87,SSE,157,0.0,-999.0,62,-99.99,,,0.00,Acu-Link.com,2013-07-08 22:44:00,
2013-07-08 18:59:00,84.6,72.8,29.88,SSE,157,3.7,-999.0,68,-99.99,,,0.00,Acu-Link.com,2013-07-08 22:59:00,
2013-07-08 19:29:00,77.5,70.8,29.91,South,180,1.7,-999.0,80,-99.99,,,0.01,Acu-Link.com,2013-07-08 23:29:00,
2013-07-08 20:00:00,73.2,69.1,29.93,SSW,202,0.0,-999.0,87,-99.99,,,0.01,Acu-Link.com,2013-07-09 00:00:00,
2013-07-08 20:45:00,70.7,67.9,29.94,South,180,0.0,-999.0,91,-99.99,,,0.01,Acu-Link.com,2013-07-09 00:45:00,
2013-07-08 21:01:00,69.8,67.4,29.94,East,90,2.2,-999.0,92,-99.99,,,0.01,Acu-Link.com,2013-07-09 01:01:00,
2013-07-08 21:31:00,69.1,67.0,29.95,East,90,0.0,-999.0,93,-99.99,,,0.01,Acu-Link.com,2013-07-09 01:31:00,
2013-07-08 21:46:00,68.7,66.6,29.95,East,90,0.0,-999.0,93,-99.99,,,0.01,Acu-Link.com,2013-07-09 01:46:00,